�N����,����,����,����,����,�C��,���x,�~����,�S�V����,�ő�u�ԕ���,,,
,,,,,,,,,����,����,����,�N��
yyyy/mm/dd,hh:mm:ss,(16),16����,m/s,��,%,mm,KW/�u,(16),16����,m/s,Time
2014/2/1,1:00:00,11,���쐼,2.8,-8,66.1,0,0,12,��,7,6
2014/2/1,2:00:00,7,�É�,0.1,-11.3,82.9,0,0,11,���쐼,2.8,0
2014/2/1,3:00:00,11,���쐼,1.2,-14,90.5,0,0,11,���쐼,2.2,54
2014/2/1,4:00:00,11,���쐼,2.7,-12.4,65.7,0,0,10,�쐼,4.1,59
2014/2/1,5:00:00,10,�쐼,0.7,-11.6,57.1,0,0,10,�쐼,16.6,52
2014/2/1,6:00:00,1,�k�k��,0.4,-13.8,76,0,0.01,16,�k,1.8,35
2014/2/1,7:00:00,10,�쐼,1.7,-16,83.8,0,0.02,10,�쐼,2.6,53
2014/2/1,8:00:00,11,���쐼,2.6,-10.2,64.2,0,0.14,11,���쐼,3.6,54
2014/2/1,9:00:00,10,�쐼,1.4,-4.8,39.1,0,0.32,10,�쐼,3.4,21
2014/2/1,10:00:00,16,�k,3.2,-3.6,34,0,0.47,3,���k��,5.3,52
2014/2/1,11:00:00,1,�k�k��,7.3,-3,34.6,0,0.58,12,��,12.1,51
2014/2/1,12:00:00,10,�쐼,9.3,-2.6,40.1,0,0.63,11,���쐼,14,55
2014/2/1,13:00:00,6,�쓌,5.9,-2.5,38.8,0,0.6,10,�쐼,13.2,4
2014/2/1,14:00:00,10,�쐼,6.7,-2.4,41.4,0,0.51,10,�쐼,12.2,54
2014/2/1,15:00:00,2,�k��,3.6,-2.2,39.1,0,0.38,10,�쐼,12,1
2014/2/1,16:00:00,10,�쐼,5.4,-2.9,43.2,0,0.18,11,���쐼,8.4,55
2014/2/1,17:00:00,9,��쐼,3.5,-5.4,53.8,0,0.02,5,���쓌,8,5
2014/2/1,18:00:00,1,�k�k��,2.3,-6.1,55.6,0,0,8,��,4.4,2
2014/2/1,19:00:00,3,���k��,2.1,-8.5,60.9,0,0,2,�k��,4.5,59
2014/2/1,20:00:00,16,�k,1.6,-6.6,56.6,0,0,3,���k��,5.7,11
2014/2/1,21:00:00,16,�k,1.7,-10.2,65.7,0,0,16,�k,3.6,25
2014/2/1,22:00:00,9,��쐼,0.7,-14.6,73.1,0,0,11,���쐼,23.6,4
2014/2/1,23:00:00,13,���k��,1.3,-15.2,75.4,0,0,11,���쐼,2.4,59
2014/2/1,0:00:00,11,���쐼,1.5,-14.5,78.1,0,0,12,��,2.9,33
2014/2/2,1:00:00,10,�쐼,3.1,-15.7,85.3,0,0,11,���쐼,3.7,56
2014/2/2,2:00:00,16,�k,1.5,-15.7,84.3,0,0,11,���쐼,3.7,11
2014/2/2,3:00:00,15,�k�k��,2.2,-15.8,83.6,0,0,3,���k��,3.3,35
2014/2/2,4:00:00,2,�k��,3.4,-15.7,84.3,0,0,16,�k,4.4,57
2014/2/2,5:00:00,2,�k��,2.9,-16.2,81.6,0,0,1,�k�k��,4.4,5
2014/2/2,6:00:00,1,�k�k��,2.8,-15.5,83.4,0,0,13,���k��,4,46
2014/2/2,7:00:00,1,�k�k��,1.9,-14.3,83,0,0,13,���k��,4.5,46
2014/2/2,8:00:00,12,��,2.9,-10.7,70.6,0,0.12,10,�쐼,4.9,45
2014/2/2,9:00:00,14,�k��,2.2,-7.2,63.8,0,0.24,13,���k��,5,26
2014/2/2,10:00:00,14,�k��,2.5,-4.8,61.2,0,0.39,8,��,4.4,50
2014/2/2,11:00:00,16,�k,0.7,-2.8,58.4,0,0.41,16,�k,3.8,0
2014/2/2,12:00:00,5,���쓌,2.3,-2.6,62.2,0,0.48,2,�k��,4,16
2014/2/2,13:00:00,11,���쐼,1.2,-3.4,66.3,0,0.22,4,��,2.8,0
2014/2/2,14:00:00,11,���쐼,0.6,-3.7,74.1,0,0.11,1,�k�k��,1.5,26
2014/2/2,15:00:00,14,�k��,1.9,-4.7,88.3,0,0.05,14,�k��,3.3,47
2014/2/2,16:00:00,14,�k��,2.1,-5.5,94.2,0,0.04,5,���쓌,4.5,41
2014/2/2,17:00:00,14,�k��,1.4,-5.5,95.2,0,0.01,14,�k��,4.7,12
2014/2/2,18:00:00,16,�k,2.1,-5.6,94.7,0,0,9,��쐼,3.6,18
2014/2/2,19:00:00,16,�k,2.7,-5.6,93.7,0,0,5,���쓌,4.8,34
2014/2/2,20:00:00,1,�k�k��,3.7,-5.4,93.4,0,0,16,�k,5.8,52
2014/2/2,21:00:00,16,�k,2.2,-5.3,93.1,0,0,4,��,6,18
2014/2/2,22:00:00,1,�k�k��,2.8,-5,92.3,0,0,16,�k,5.1,36
2014/2/2,23:00:00,15,�k�k��,1.9,-4.9,92.2,0,0,16,�k,6.1,35
2014/2/2,0:00:00,16,�k,2,-4.8,93.7,0,0,2,�k��,5.3,17
2014/2/3,1:00:00,12,��,1.5,-4.8,97.2,0,0,11,���쐼,3.6,54
2014/2/3,2:00:00,14,�k��,2.4,-4.8,99.3,0,0,4,��,3.5,57
2014/2/3,3:00:00,2,�k��,3,-4.6,99,0,0,4,��,4.7,48
2014/2/3,4:00:00,1,�k�k��,3.2,-1.2,97.8,0,0,11,���쐼,6.3,40
2014/2/3,5:00:00,11,���쐼,4.1,3.7,77.8,0,0,11,���쐼,6.2,51
2014/2/3,6:00:00,11,���쐼,4.2,4,67.5,0,0,11,���쐼,8.4,20
2014/2/3,7:00:00,11,���쐼,5.1,4,65.6,1.5,0.01,11,���쐼,8.2,49
2014/2/3,8:00:00,10,�쐼,7.8,4,64.1,1,0.13,11,���쐼,10.8,21
2014/2/3,9:00:00,11,���쐼,5,4.3,57.4,0,0.22,11,���쐼,9.6,12
2014/2/3,10:00:00,10,�쐼,7.8,4.6,43.7,0,0.26,11,���쐼,11.7,58
2014/2/3,11:00:00,10,�쐼,7.6,4,40.2,0,0.24,11,���쐼,12.5,51
2014/2/3,12:00:00,10,�쐼,6,3.7,40.2,0,0.36,7,��쓌,14,6
2014/2/3,13:00:00,9,��쐼,5.3,3.4,37,0,0.32,10,�쐼,11.7,15
2014/2/3,14:00:00,9,��쐼,5.6,4.5,34.6,0,0.24,8,��,12.8,13
2014/2/3,15:00:00,2,�k��,3.8,1.3,54.8,0,0.3,8,��,9.3,18
2014/2/3,16:00:00,2,�k��,3.5,-0.3,58.8,0,0.13,3,���k��,5.8,5
2014/2/3,17:00:00,1,�k�k��,2.9,-0.4,54.9,0,0.02,1,�k�k��,5.2,50
2014/2/3,18:00:00,2,�k��,1.1,-1.1,57.6,0,0,16,�k,3.6,0
2014/2/3,19:00:00,15,�k�k��,1.1,-1.3,55.7,0,0,16,�k,3.2,47
2014/2/3,20:00:00,15,�k�k��,0.4,-2.1,60.7,0,0,5,���쓌,3.1,21
2014/2/3,21:00:00,13,���k��,0.5,-2.4,63.9,0,0,9,��쐼,2.2,8
2014/2/3,22:00:00,14,�k��,0.5,-2.7,67.2,0,0,13,���k��,2.3,38
2014/2/3,23:00:00,14,�k��,1.7,-3,66.4,0,0,16,�k,3.3,31
2014/2/3,0:00:00,14,�k��,1.7,-3.4,69.2,0,0,15,�k�k��,3.5,23
2014/2/4,1:00:00,14,�k��,2.5,-3.7,65.4,0,0,16,�k,6,29
2014/2/4,2:00:00,13,���k��,3.1,-3.8,59.9,0,0,13,���k��,5.9,56
2014/2/4,3:00:00,13,���k��,3,-4,58.4,0,0,7,��쓌,7.5,7
2014/2/4,4:00:00,13,���k��,3.1,-4.7,56.1,0,0,11,���쐼,6.6,38
2014/2/4,5:00:00,14,�k��,1.6,-6.1,56.8,0,0,8,��,5.6,0
2014/2/4,6:00:00,15,�k�k��,3,-6.6,57.9,0,0,16,�k,6.4,46
2014/2/4,7:00:00,13,���k��,3,-6.9,54,0,0.01,11,���쐼,5.4,49
2014/2/4,8:00:00,12,��,3.6,-6.6,49.9,0,0.13,13,���k��,7.4,8
2014/2/4,9:00:00,11,���쐼,2.9,-6,48.1,0,0.32,11,���쐼,5.5,0
2014/2/4,10:00:00,11,���쐼,2.9,-4.2,44.4,0,0.49,10,�쐼,6.9,53
2014/2/4,11:00:00,11,���쐼,4.6,-4.2,38.4,0,0.61,1,�k�k��,8.7,56
2014/2/4,12:00:00,9,��쐼,3.7,-3.5,34.6,0,0.65,10,�쐼,7.8,7
2014/2/4,13:00:00,12,��,2.9,-3.1,32.5,0,0.63,15,�k�k��,8,13
2014/2/4,14:00:00,8,��,1.4,-2,44.7,0,0.54,4,��,4.3,59
2014/2/4,15:00:00,6,�쓌,0.8,-1.7,43.6,0,0.4,5,���쓌,3.9,14
2014/2/4,16:00:00,9,��쐼,0.6,-3.6,46.5,0,0.21,6,�쓌,2.6,6
2014/2/4,17:00:00,11,���쐼,1.5,-6.4,52.1,0,0.02,10,�쐼,2.1,47
2014/2/4,18:00:00,8,��,2.4,-8.9,63.1,0,0,6,�쓌,3.2,50
2014/2/4,19:00:00,16,�k,0.3,-11,68.5,0,0,2,�k��,3.1,26
2014/2/4,20:00:00,9,��쐼,2.8,-8.8,67.4,0,0,9,��쐼,3.8,56
2014/2/4,21:00:00,4,��,2.3,-8.5,69.1,0,0,1,�k�k��,3.7,5
2014/2/4,22:00:00,9,��쐼,2.2,-8.3,83,0,0,10,�쐼,4.6,36
2014/2/4,23:00:00,6,�쓌,3.8,-8.3,83.2,0,0,8,��,6.4,46
2014/2/4,0:00:00,5,���쓌,3.8,-8.5,84.1,0,0,16,�k,6.9,50
2014/2/5,1:00:00,14,�k��,1.7,-8.6,84.3,0,0,1,�k�k��,5.6,0
2014/2/5,2:00:00,12,��,2,-8.8,84.6,0,0,9,��쐼,3.7,15
2014/2/5,3:00:00,10,�쐼,2.4,-10.4,84.5,0,0,3,���k��,5,51
2014/2/5,4:00:00,3,���k��,2.7,-11.4,90.4,0,0,6,�쓌,4.3,55
2014/2/5,5:00:00,9,��쐼,2.4,-13.2,90.9,0,0,8,��,4.2,0
2014/2/5,6:00:00,3,���k��,3.8,-12.1,90.8,0,0,3,���k��,6.3,47
2014/2/5,7:00:00,7,��쓌,4.1,-13.6,87.5,0,0.01,3,���k��,7.2,9
2014/2/5,8:00:00,7,��쓌,1.9,-12.3,82.4,0,0.15,5,���쓌,5.1,3
2014/2/5,9:00:00,10,�쐼,1.6,-10,69.7,0,0.34,9,��쐼,3,44
2014/2/5,10:00:00,11,���쐼,1.7,-8.5,61.9,0,0.42,15,�k�k��,3.8,36
2014/2/5,11:00:00,4,��,2.9,-6.6,44.1,0,0.6,13,���k��,5.3,50
2014/2/5,12:00:00,13,���k��,3.3,-5.2,33.8,0,0.65,14,�k��,6.4,58
2014/2/5,13:00:00,7,��쓌,4.8,-5.5,37.6,0,0.48,6,�쓌,9,51
2014/2/5,14:00:00,6,�쓌,4.8,-4.9,33,0,0.42,11,���쐼,10,15
2014/2/5,15:00:00,6,�쓌,7.9,-5.8,37.7,0,0.37,4,��,14.4,50
2014/2/5,16:00:00,7,��쓌,7.3,-6.7,37.9,0,0.22,12,��,16,5
2014/2/5,17:00:00,7,��쓌,5.1,-7.8,40.2,0,0.04,7,��쓌,11.9,11
2014/2/5,18:00:00,14,�k��,3.4,-8.7,42.4,0,0,3,���k��,9.8,14
2014/2/5,19:00:00,14,�k��,2.7,-8.7,41,0,0,1,�k�k��,8.1,27
2014/2/5,20:00:00,3,���k��,2.4,-10.1,45.9,0,0,10,�쐼,5.7,6
2014/2/5,21:00:00,10,�쐼,1.7,-12.2,48.8,0,0,6,�쓌,4.4,3
2014/2/5,22:00:00,4,��,1.8,-11.1,48.5,0,0,10,�쐼,5.8,33
2014/2/5,23:00:00,2,�k��,1.5,-13,53,0,0,6,�쓌,2.7,41
2014/2/5,0:00:00,2,�k��,1.4,-16.9,71.2,0,0,16,�k,2.5,44
2014/2/6,1:00:00,10,�쐼,2.3,-18.2,74.2,0,0,8,��,3,53
2014/2/6,2:00:00,6,�쓌,2.5,-16.8,71.1,0,0,5,���쓌,3.8,31
2014/2/6,3:00:00,11,���쐼,2,-17.6,74.1,0,0,3,���k��,4.1,46
2014/2/6,4:00:00,8,��,2.5,-18.9,75.2,0,0,11,���쐼,3.4,33
2014/2/6,5:00:00,10,�É�,0.1,-18,77.7,0,0,10,�쐼,3.8,18
2014/2/6,6:00:00,10,�쐼,2.5,-20.2,84.2,0,0,8,��,3.3,59
2014/2/6,7:00:00,2,�k��,2.4,-19.2,83.8,0,0.02,11,���쐼,4,45
2014/2/6,8:00:00,13,���k��,0.9,-17.1,76.8,0,0.15,1,�k�k��,3.4,11
2014/2/6,9:00:00,12,��,1.6,-10.7,62.4,0,0.34,11,���쐼,2.7,26
2014/2/6,10:00:00,11,���쐼,4.9,-5.9,39.6,0,0.51,11,���쐼,9.1,59
2014/2/6,11:00:00,11,���쐼,5.1,-5.3,39.3,0,0.61,12,��,9,10
2014/2/6,12:00:00,11,���쐼,4.1,-4.7,39.9,0,0.7,10,�쐼,8.5,13
2014/2/6,13:00:00,11,���쐼,4.3,-4.5,35.6,0,0.73,11,���쐼,10.6,38
2014/2/6,14:00:00,11,���쐼,6,-4.4,33.2,0,0.64,11,���쐼,9.9,49
2014/2/6,15:00:00,12,��,3.3,-4.5,35.4,0,0.45,10,�쐼,11.1,12
2014/2/6,16:00:00,13,���k��,2.3,-5,41.7,0,0.25,14,�k��,5.2,0
2014/2/6,17:00:00,11,���쐼,1.9,-7.8,54.1,0,0.05,12,��,4.2,11
2014/2/6,18:00:00,11,���쐼,2.2,-9.4,55.8,0,0,6,�쓌,3.6,2
2014/2/6,19:00:00,6,�쓌,0.5,-11.2,64.3,0,0,7,��쓌,4,43
2014/2/6,20:00:00,13,���k��,0.9,-13.7,76.4,0,0,8,��,2.4,47
2014/2/6,21:00:00,11,���쐼,0.8,-16.7,74,0,0,13,���k��,3.3,43
2014/2/6,22:00:00,12,��,1.4,-17,78.2,0,0,12,��,2.5,20
2014/2/6,23:00:00,11,���쐼,2.4,-18.6,81.4,0,0,11,���쐼,3.5,37
2014/2/6,0:00:00,11,���쐼,2.3,-17.9,79.4,0,0,4,��,3.8,43
2014/2/7,1:00:00,8,��,2.5,-19.3,80.6,0,0,11,���쐼,3.9,10
2014/2/7,2:00:00,13,���k��,1.2,-21,78.5,0,0,6,�쓌,4.3,14
2014/2/7,3:00:00,11,���쐼,1.5,-19.6,85.2,0,0,7,��쓌,3,16
2014/2/7,4:00:00,10,�쐼,1.6,-21.2,81.1,0,0,13,���k��,2.7,34
2014/2/7,5:00:00,10,�쐼,2.5,-21,80.2,0,0,1,�k�k��,3.7,9
2014/2/7,6:00:00,10,�쐼,2,-21.6,84.4,0,0,9,��쐼,4,20
2014/2/7,7:00:00,2,�k��,1.8,-21.1,79.4,0,0.02,16,�k,4.2,31
2014/2/7,8:00:00,3,���k��,2.1,-18.1,72.3,0,0.15,10,�쐼,3.5,44
2014/2/7,9:00:00,9,��쐼,1.8,-13.2,61.3,0,0.35,10,�쐼,4.4,48
2014/2/7,10:00:00,7,�É�,0.1,-8.5,43.8,0,0.51,3,���k��,2.8,35
2014/2/7,11:00:00,14,�É�,0.2,-5,30.7,0,0.62,12,��,1.6,9
2014/2/7,12:00:00,13,���k��,1.1,-4.9,29.6,0,0.66,14,�k��,2.6,49
2014/2/7,13:00:00,12,��,1.7,-4.4,30.6,0,0.65,12,��,3.3,27
2014/2/7,14:00:00,12,��,1,-3.6,32.3,0,0.62,11,���쐼,3.8,38
2014/2/7,15:00:00,5,���쓌,1.6,-3.8,39.9,0,0.36,4,��,3.4,56
2014/2/7,16:00:00,14,�k��,1.5,-5.4,35.7,0,0.21,15,�k�k��,3,59
2014/2/7,17:00:00,13,���k��,2.1,-7.3,58.7,0,0.02,15,�k�k��,6.1,32
2014/2/7,18:00:00,13,���k��,2,-8.4,58.8,0,0,1,�k�k��,3.7,9
2014/2/7,19:00:00,10,�쐼,2.7,-11.6,64.8,0,0,10,�쐼,4.1,24
2014/2/7,20:00:00,9,��쐼,3,-10.6,66.7,0,0,11,���쐼,4.2,48
2014/2/7,21:00:00,6,�쓌,3.1,-11,70.9,0,0,11,���쐼,5,29
2014/2/7,22:00:00,12,��,2,-11.5,68.9,0,0,8,��,4.1,35
2014/2/7,23:00:00,8,��,2.1,-14.4,75.6,0,0,8,��,4.8,9
2014/2/7,0:00:00,4,��,3.4,-13.7,75.8,0,0,7,��쓌,5.2,59
2014/2/8,1:00:00,5,���쓌,4,-13.5,77.4,0,0,1,�k�k��,5.6,48
2014/2/8,2:00:00,9,��쐼,0.8,-15.4,85.8,0,0,8,��,5.1,1
2014/2/8,3:00:00,8,��,3.2,-14.8,78.5,0,0,4,��,4.8,54
2014/2/8,4:00:00,11,���쐼,0.6,-18.2,80.2,0,0,2,�k��,24.1,51
2014/2/8,5:00:00,10,�쐼,1.3,-17.4,83.5,0,0,10,�쐼,3,47
2014/2/8,6:00:00,12,��,2.1,-21.3,82.4,0,0,3,���k��,3,2
2014/2/8,7:00:00,10,�쐼,2.2,-18.9,85.6,0,0.02,12,��,3.5,11
2014/2/8,8:00:00,12,��,1.7,-16.9,76.3,0,0.15,10,�쐼,3.6,23
2014/2/8,9:00:00,10,�쐼,1.4,-13.2,68.1,0,0.29,12,��,2,48
2014/2/8,10:00:00,2,�k��,1.2,-8.2,64.1,0,0.48,3,���k��,2,42
2014/2/8,11:00:00,3,���k��,2,-6.3,59.1,0,0.51,4,��,3.7,40
2014/2/8,12:00:00,4,��,2.5,-5.6,54.8,0,0.56,4,��,4.2,58
2014/2/8,13:00:00,6,�쓌,2.2,-6.7,56.5,0,0.57,5,���쓌,4.3,36
2014/2/8,14:00:00,4,��,2.5,-6.5,60,0,0.42,5,���쓌,3.7,57
2014/2/8,15:00:00,5,���쓌,1.3,-6.6,62.8,0,0.28,4,��,3.8,26
2014/2/8,16:00:00,6,�쓌,1,-6.8,60.9,0,0.14,4,��,3,23
2014/2/8,17:00:00,16,�É�,0.2,-9.9,70.8,0,0.03,4,��,3.4,35
2014/2/8,18:00:00,12,��,0.7,-12.2,81.4,0,0,16,�k,2.1,7
2014/2/8,19:00:00,13,���k��,1.2,-12.2,81.3,0,0,10,�쐼,1.8,49
2014/2/8,20:00:00,13,���k��,1.6,-11,77.1,0,0,16,�k,2.9,35
2014/2/8,21:00:00,12,��,2.4,-10.6,75.3,0,0,16,�k,3.4,51
2014/2/8,22:00:00,4,��,2.1,-10.5,77,0,0,10,�쐼,3.1,59
2014/2/8,23:00:00,12,��,2.3,-10,72.7,0,0,10,�쐼,3.3,5
2014/2/8,0:00:00,11,���쐼,1.8,-9.5,70.8,0,0,16,�k,3.5,16
2014/2/9,1:00:00,11,���쐼,2.2,-9.4,67.9,0,0,12,��,3.5,37
2014/2/9,2:00:00,13,���k��,2.1,-9.3,66.1,0,0,9,��쐼,3.7,47
2014/2/9,3:00:00,11,���쐼,2.5,-9.8,65.8,0,0,14,�k��,5.3,55
2014/2/9,4:00:00,13,���k��,3.1,-10,67.1,0,0,7,��쓌,5.8,57
2014/2/9,5:00:00,12,��,3.7,-10.1,65.8,0,0,9,��쐼,7.1,18
2014/2/9,6:00:00,12,��,3.2,-10.1,68.8,0,0,12,��,6.6,6
2014/2/9,7:00:00,9,��쐼,4.4,-10.2,73.5,0,0,14,�k��,7.2,37
2014/2/9,8:00:00,7,��쓌,5.3,-9.5,80.1,0,0.04,7,��쓌,9.1,48
2014/2/9,9:00:00,6,�쓌,5.8,-8.9,82.4,0,0.09,12,��,9.3,53
2014/2/9,10:00:00,9,��쐼,4.9,-8.1,79.8,0,0.16,9,��쐼,10.3,12
2014/2/9,11:00:00,5,���쓌,5.5,-8,85.8,0,0.18,12,��,9.3,57
2014/2/9,12:00:00,4,��,5.4,-7.4,85.6,0,0.17,3,���k��,10.4,19
2014/2/9,13:00:00,4,��,5.7,-7,86.9,0,0.18,1,�k�k��,9.3,14
2014/2/9,14:00:00,5,���쓌,5,-6.7,90.1,0,0.12,2,�k��,9.1,12
2014/2/9,15:00:00,4,��,5.6,-6.3,91.2,0,0.09,8,��,9.4,18
2014/2/9,16:00:00,9,��쐼,4.5,-6.1,93.2,0,0.05,16,�k,8.1,5
2014/2/9,17:00:00,4,��,5.4,-5.9,94.2,0,0.01,5,���쓌,8.7,56
2014/2/9,18:00:00,6,�쓌,4.9,-5.7,94,0,0,16,�k,8.9,33
2014/2/9,19:00:00,3,���k��,5.3,-5.9,93.5,0,0,6,�쓌,9.4,36
2014/2/9,20:00:00,4,��,5.8,-6,93.9,0,0,7,��쓌,10,25
2014/2/9,21:00:00,4,��,5.7,-6,92.6,0,0,6,�쓌,10.2,23
2014/2/9,22:00:00,4,��,5.8,-5.6,92.7,0,0,11,���쐼,10.9,24
2014/2/9,23:00:00,3,���k��,5.1,-5.3,93.9,0,0,2,�k��,10.4,59
2014/2/9,0:00:00,13,���k��,4.6,-5.1,91.7,0,0,5,���쓌,9.5,15
2014/2/10,1:00:00,13,���k��,3.5,-4.9,91.8,0,0,12,��,7.4,18
2014/2/10,2:00:00,13,���k��,4,-4.7,91.5,0,0,14,�k��,7.4,50
2014/2/10,3:00:00,14,�k��,3.8,-4.5,89.3,0,0,7,��쓌,7.4,49
2014/2/10,4:00:00,14,�k��,3.1,-4.4,85.4,0,0,10,�쐼,7.6,4
2014/2/10,5:00:00,13,���k��,2.9,-4.2,83.3,0,0,11,���쐼,6.7,22
2014/2/10,6:00:00,13,���k��,3.3,-3.9,78.8,0,0,3,���k��,5.7,18
2014/2/10,7:00:00,13,���k��,2.5,-3.6,75.8,0,0.02,10,�쐼,6.6,10
2014/2/10,8:00:00,14,�k��,2.6,-3.3,72.7,0,0.07,10,�쐼,6.2,35
2014/2/10,9:00:00,14,�k��,3.5,-2.4,65.4,0,0.13,14,�k��,5.5,20
2014/2/10,10:00:00,14,�k��,3.9,-1.7,60.5,0,0.28,12,��,7.4,34
2014/2/10,11:00:00,13,���k��,4.2,-1,54.7,0.5,0.49,12,��,8.7,43
2014/2/10,12:00:00,14,�k��,3.2,0.1,54.6,1.5,0.48,15,�k�k��,8.7,26
2014/2/10,13:00:00,14,�k��,3.7,-0.2,52.9,0.5,0.62,14,�k��,6.8,7
2014/2/10,14:00:00,14,�k��,3.5,0.3,52.6,0,0.56,14,�k��,7.1,9
2014/2/10,15:00:00,13,���k��,3.6,0.3,51.9,0,0.35,15,�k�k��,6.3,5
2014/2/10,16:00:00,13,���k��,1.7,-1.2,61.1,0,0.13,1,�k�k��,6,4
2014/2/10,17:00:00,14,�k��,0.4,-3.8,72.2,0,0.03,16,�k,4.2,52
2014/2/10,18:00:00,12,��,0.5,-3.7,78.8,0,0,12,��,1.7,45
2014/2/10,19:00:00,3,���k��,1.6,-2.8,74.9,0,0,11,���쐼,2.6,12
2014/2/10,20:00:00,2,�k��,2,-2.2,73.6,0,0,2,�k��,3.4,24
2014/2/10,21:00:00,15,�k�k��,0.4,-6,87.9,0,0,16,�k,24.8,55
2014/2/10,22:00:00,13,���k��,1.4,-6.8,90.2,0,0,14,�k��,2.1,58
2014/2/10,23:00:00,13,���k��,0.9,-13.6,87.7,0,0,11,���쐼,3.8,37
2014/2/10,0:00:00,11,���쐼,2,-10.9,94.2,0,0,13,���k��,2.7,52
2014/2/11,1:00:00,11,���쐼,2.2,-14.1,92.1,0,0,5,���쓌,2.8,53
2014/2/11,2:00:00,10,�쐼,2.5,-13.6,90.9,0,0,11,���쐼,3.7,48
2014/2/11,3:00:00,11,���쐼,1.4,-14.7,89.2,0,0,10,�쐼,3.8,1
2014/2/11,4:00:00,10,�쐼,2.7,-12.2,93.4,0,0,11,���쐼,4.7,24
2014/2/11,5:00:00,11,���쐼,1.2,-12.5,93,0,0,1,�k�k��,4.1,4
2014/2/11,6:00:00,10,�쐼,1.7,-13.5,91,0,0.01,2,�k��,3.8,30
2014/2/11,7:00:00,12,��,1.2,-13.9,92.1,0,0.02,2,�k��,3.1,8
2014/2/11,8:00:00,11,���쐼,1.8,-11.2,93,0,0.16,6,�쓌,3.8,27
2014/2/11,9:00:00,11,���쐼,0.8,-8.9,94.5,0,0.35,6,�쓌,3.1,21
2014/2/11,10:00:00,5,���쓌,0.7,-2.1,71.5,0,0.52,11,���쐼,3,24
2014/2/11,11:00:00,5,���쓌,0.8,0.6,70.2,0,0.64,4,��,1.6,0
2014/2/11,12:00:00,5,���쓌,1.9,-0.4,65.8,0,0.68,5,���쓌,2.6,57
2014/2/11,13:00:00,4,��,2.5,-0.4,69.5,0,0.66,5,���쓌,3.7,5
2014/2/11,14:00:00,5,���쓌,0.9,1.8,69.1,0,0.58,6,�쓌,2.9,33
2014/2/11,15:00:00,7,��쓌,1.4,-0.9,75.2,0,0.43,6,�쓌,4,43
2014/2/11,16:00:00,7,��쓌,0.8,-1.3,76.3,0,0.24,6,�쓌,2.5,16
2014/2/11,17:00:00,6,�쓌,0.4,-5.6,92,0,0.06,8,��,1.1,1
2014/2/11,18:00:00,14,�k��,0.5,-9,94.3,0,0,13,���k��,1.2,31
2014/2/11,19:00:00,12,��,1.7,-10.8,95.9,0,0,12,��,2.2,57
2014/2/11,20:00:00,11,���쐼,2.2,-9.8,95.8,0,0,12,��,3.1,37
2014/2/11,21:00:00,11,���쐼,2.7,-10.8,92.4,0,0,12,��,3.6,54
2014/2/11,22:00:00,11,���쐼,1.4,-11.5,93.7,0,0,9,��쐼,3.9,49
2014/2/11,23:00:00,9,��쐼,2.9,-9.9,95,0,0,9,��쐼,5.5,54
2014/2/11,0:00:00,11,���쐼,2.1,-11.1,95.3,0,0,12,��,3.8,40
2014/2/12,1:00:00,12,��,2.2,-13.4,92.7,0,0,12,��,4.1,48
2014/2/12,2:00:00,6,�쓌,3,-12.8,93.6,0,0,12,��,4.5,31
2014/2/12,3:00:00,11,���쐼,2.7,-15.4,87,0,0,6,�쓌,4.5,9
2014/2/12,4:00:00,10,�쐼,3.3,-13,93.1,0,0,3,���k��,4.7,55
2014/2/12,5:00:00,16,�k,2.5,-11.6,95.9,0,0,16,�k,5,11
2014/2/12,6:00:00,12,��,2.2,-12.6,92.1,0,0,13,���k��,5.2,16
2014/2/12,7:00:00,12,��,2.1,-11.2,96.1,0,0.02,11,���쐼,3.6,59
2014/2/12,8:00:00,15,�k�k��,1.6,-9.2,85.3,0,0.13,16,�k,3.8,38
2014/2/12,9:00:00,13,���k��,1.2,-6.2,75.8,0,0.3,16,�k,2.6,40
2014/2/12,10:00:00,5,�É�,0.2,-2.7,61,0,0.47,9,��쐼,3.9,46
2014/2/12,11:00:00,13,���k��,2.7,-1.2,50.9,0,0.51,14,�k��,4.8,50
2014/2/12,12:00:00,2,�k��,2.5,0.2,46.3,0,0.57,16,�k,4.2,5
2014/2/12,13:00:00,12,��,1.6,-0.5,50.8,0,0.63,13,���k��,4.4,31
2014/2/12,14:00:00,13,���k��,1.9,0.5,39.3,0,0.57,13,���k��,3.8,39
2014/2/12,15:00:00,3,���k��,1.8,-0.2,47,0,0.39,14,�k��,4.3,0
2014/2/12,16:00:00,14,�k��,1.4,-1.6,45.6,0,0.2,3,���k��,3.1,0
2014/2/12,17:00:00,14,�k��,1.8,-3,52.7,0,0.05,13,���k��,3.4,41
2014/2/12,18:00:00,13,���k��,2.8,-3.6,55.3,0,0,14,�k��,3.8,59
2014/2/12,19:00:00,12,��,2.4,-3.7,55.8,0,0,16,�k,4.2,5
2014/2/12,20:00:00,12,��,2.3,-3.6,55.4,0,0,15,�k�k��,4.1,14
2014/2/12,21:00:00,12,��,0.6,-7,67.9,0,0,10,�쐼,3.7,13
2014/2/12,22:00:00,13,���k��,1.8,-7.3,72.7,0,0,1,�k�k��,2.4,55
2014/2/12,23:00:00,14,�k��,0.6,-9.6,74.9,0,0,3,���k��,3.5,24
2014/2/12,0:00:00,13,���k��,1.3,-6.3,68.7,0,0,12,��,3.3,59
2014/2/13,1:00:00,3,���k��,3.1,-6.5,64.8,0,0,16,�k,5,30
2014/2/13,2:00:00,3,���k��,4.1,-5.9,65.2,0,0,10,�쐼,7.1,55
2014/2/13,3:00:00,3,���k��,2.8,-6.7,66.1,0,0,3,���k��,6.2,4
2014/2/13,4:00:00,2,�k��,2.7,-7.8,66.8,0,0,1,�k�k��,4.2,28
2014/2/13,5:00:00,2,�k��,3.4,-8.7,79.4,0,0,9,��쐼,5.3,40
2014/2/13,6:00:00,3,���k��,4.1,-9.2,80.1,0,0,1,�k�k��,5.9,44
2014/2/13,7:00:00,2,�k��,3.4,-9.3,82.2,0,0.02,2,�k��,6,26
2014/2/13,8:00:00,3,���k��,2.9,-8.2,72.8,0,0.17,12,��,5.4,31
2014/2/13,9:00:00,8,��,3.1,-4.9,61,0,0.37,8,��,5.3,45
2014/2/13,10:00:00,13,���k��,3.8,-3.5,54.9,0,0.54,5,���쓌,6,55
2014/2/13,11:00:00,12,��,5,-2.8,50.9,0,0.64,9,��쐼,8.3,45
2014/2/13,12:00:00,5,���쓌,4.9,-2.1,48.2,0,0.69,11,���쐼,9.8,3
2014/2/13,13:00:00,2,�k��,4.2,-1.7,47.3,0,0.67,5,���쓌,8.4,0
2014/2/13,14:00:00,14,�k��,4.6,-0.5,31.5,0,0.6,10,�쐼,8.4,24
2014/2/13,15:00:00,14,�k��,4.5,-0.5,34.3,0,0.45,3,���k��,7.2,57
2014/2/13,16:00:00,16,�k,2.6,-0.9,39.1,0,0.26,9,��쐼,7.3,6
2014/2/13,17:00:00,14,�k��,2.2,-2.8,46.8,0,0.06,13,���k��,4.7,18
2014/2/13,18:00:00,4,��,3,-3.6,51.7,0,0,9,��쐼,6.7,45
2014/2/13,19:00:00,9,��쐼,3.6,-5.3,60.6,0,0,16,�k,6.3,2
2014/2/13,20:00:00,11,���쐼,2.7,-7,64.5,0,0,5,���쓌,6.5,3
2014/2/13,21:00:00,4,��,2.4,-6.2,64.8,0,0,9,��쐼,4.3,38
2014/2/13,22:00:00,5,���쓌,0.7,-10,82.7,0,0,3,���k��,3.2,3
2014/2/13,23:00:00,10,�쐼,0.5,-13.4,86.8,0,0,10,�쐼,2.1,27
2014/2/13,0:00:00,8,��,2.5,-14.5,89.7,0,0,12,��,3.4,57
2014/2/14,1:00:00,11,���쐼,2.7,-10.6,88.5,0,0,11,���쐼,3.9,7
2014/2/14,2:00:00,10,�쐼,2.3,-13.1,90.5,0,0,10,�쐼,3.8,33
2014/2/14,3:00:00,11,���쐼,1.5,-17.4,89.7,0,0,10,�쐼,3.3,1
2014/2/14,4:00:00,11,���쐼,1.3,-17.1,88.3,0,0,11,���쐼,3.5,45
2014/2/14,5:00:00,3,���k��,2.3,-16.9,89.5,0,0,12,��,4.5,12
2014/2/14,6:00:00,10,�쐼,2.4,-16.8,89.9,0,0,1,�k�k��,3.8,1
2014/2/14,7:00:00,10,�쐼,2.9,-16.7,89.1,0,0.03,9,��쐼,3.5,53
2014/2/14,8:00:00,10,�쐼,1.6,-14.7,90.8,0,0.18,11,���쐼,4,10
2014/2/14,9:00:00,12,�É�,0.2,-11.2,77.5,0,0.38,12,��,2.2,35
2014/2/14,10:00:00,12,�É�,0.2,-3.9,51.6,0,0.55,16,�k,25,20
2014/2/14,11:00:00,6,�쓌,1.9,-2.5,55.4,0,0.66,6,�쓌,3.1,55
2014/2/14,12:00:00,7,��쓌,2.4,-1.3,33.8,0,0.7,8,��,4.5,26
2014/2/14,13:00:00,6,�쓌,2.1,-1.4,36.4,0,0.68,6,�쓌,4.7,27
2014/2/14,14:00:00,5,���쓌,2.5,-1.3,43.3,0,0.6,6,�쓌,4.5,9
2014/2/14,15:00:00,10,�쐼,4.1,-1.3,42.3,0,0.45,11,���쐼,7.2,42
2014/2/14,16:00:00,11,���쐼,3.9,-1.8,44.1,0,0.26,11,���쐼,6.5,33
2014/2/14,17:00:00,15,�k�k��,1.4,-3.3,43,0,0.07,11,���쐼,4.2,1
2014/2/14,18:00:00,2,�k��,1.9,-6.3,55.5,0,0,2,�k��,4.1,42
2014/2/14,19:00:00,12,��,1.3,-13.1,68.9,0,0,2,�k��,2.3,3
2014/2/14,20:00:00,11,���쐼,1.1,-11.4,79.5,0,0,4,��,17,48
2014/2/14,21:00:00,8,��,1.5,-11.3,78.2,0,0,12,��,2,29
2014/2/14,22:00:00,13,���k��,0.6,-13.8,81.8,0,0,11,���쐼,2,17
2014/2/14,23:00:00,10,�쐼,0.8,-14.6,83,0,0,12,��,2.2,31
2014/2/14,0:00:00,8,��,2.5,-11.1,78.5,0,0,3,���k��,3.8,36
2014/2/15,1:00:00,5,���쓌,3.5,-9.6,71,0,0,7,��쓌,4.6,49
2014/2/15,2:00:00,13,���k��,1.6,-8.8,70.6,0,0,16,�k,4.7,33
2014/2/15,3:00:00,15,�k�k��,0.6,-12.3,74.7,0,0,3,���k��,8.4,13
2014/2/15,4:00:00,12,��,1.1,-13,87.6,0,0,12,��,1.7,54
2014/2/15,5:00:00,10,�쐼,2.3,-10.1,77,0,0,7,��쓌,3.2,50
2014/2/15,6:00:00,4,��,2.9,-10.4,74.6,0,0,3,���k��,4.2,57
2014/2/15,7:00:00,5,���쓌,3.5,-9.6,72.5,0,0,16,�k,5.3,52
2014/2/15,8:00:00,3,���k��,3.6,-8.6,68.2,0,0.08,5,���쓌,6,51
2014/2/15,9:00:00,2,�k��,2.5,-6.8,64,0,0.17,9,��쐼,5.8,27
2014/2/15,10:00:00,1,�k�k��,3.6,-5.5,60.2,0,0.23,13,���k��,6.1,38
2014/2/15,11:00:00,12,��,3.3,-4.8,58.3,0,0.25,3,���k��,6.3,4
2014/2/15,12:00:00,2,�k��,2.5,-4.6,61,0,0.18,10,�쐼,5.4,1
2014/2/15,13:00:00,1,�k�k��,2.2,-3.9,61.4,0,0.17,4,��,4.7,12
2014/2/15,14:00:00,3,���k��,2.4,-4,63.7,0,0.1,12,��,4.3,34
2014/2/15,15:00:00,4,��,2.4,-4.8,82.6,0,0.09,4,��,3.8,59
2014/2/15,16:00:00,5,���쓌,2.7,-5.2,93.4,0,0.05,15,�k�k��,5,54
2014/2/15,17:00:00,4,��,4.1,-5.5,94.4,0,0.01,13,���k��,7.5,54
2014/2/15,18:00:00,4,��,4.1,-4.9,92.7,0,0,9,��쐼,7.4,26
2014/2/15,19:00:00,4,��,4.7,-4.8,92.5,0,0,2,�k��,8,58
2014/2/15,20:00:00,5,���쓌,4.6,-4.8,91.7,0,0,16,�k,10.2,24
2014/2/15,21:00:00,5,���쓌,5.4,-4.7,92.4,0,0,1,�k�k��,10.1,32
2014/2/15,22:00:00,5,���쓌,5.6,-4.5,93.4,0,0,5,���쓌,9.4,54
2014/2/15,23:00:00,4,��,5.6,-4.3,94,0,0,4,��,11.1,34
2014/2/15,0:00:00,4,��,6.4,-4,95,0,0,4,��,10.8,23
2014/2/16,1:00:00,5,���쓌,5.9,-3.9,95.3,0,0,7,��쓌,11.2,28
2014/2/16,2:00:00,2,�k��,5.9,-3.7,95.7,0,0,3,���k��,11.5,28
2014/2/16,3:00:00,15,�k�k��,6,-3.7,96.1,0,0,8,��,12,58
2014/2/16,4:00:00,5,���쓌,6.2,-3.7,96.6,0,0,8,��,11.5,4
2014/2/16,5:00:00,12,��,6.5,-3.9,96.6,0,0,4,��,11.6,7
2014/2/16,6:00:00,14,�k��,6.4,-3.9,96.7,0,0,13,���k��,12.8,37
2014/2/16,7:00:00,14,�k��,6.7,-3.8,96.5,0,0.01,13,���k��,11.8,58
2014/2/16,8:00:00,14,�k��,7.4,-3.5,96.1,0,0.02,13,���k��,11.9,58
2014/2/16,9:00:00,14,�k��,6.5,-3.3,96.1,0,0.04,2,�k��,12.1,18
2014/2/16,10:00:00,14,�k��,6.8,-3,96.2,0,0.07,14,�k��,12.3,2
2014/2/16,11:00:00,14,�k��,6.5,-2.8,94.6,0,0.11,14,�k��,11.7,23
2014/2/16,12:00:00,14,�k��,5.5,-2.6,95.2,0,0.13,13,���k��,10.4,40
2014/2/16,13:00:00,14,�k��,4.3,-2.1,90.9,0,0.19,15,�k�k��,10.7,8
2014/2/16,14:00:00,15,�k�k��,5.5,-1.5,84.6,0,0.18,16,�k,11.7,45
2014/2/16,15:00:00,15,�k�k��,3.9,-1.4,84.5,0,0.17,15,�k�k��,8.7,0
2014/2/16,16:00:00,16,�k,4.9,-1.2,80.2,0,0.09,16,�k,10.7,20
2014/2/16,17:00:00,15,�k�k��,4.9,-1.4,79.2,0,0.03,15,�k�k��,9.6,18
2014/2/16,18:00:00,14,�k��,3.2,-1.5,78.5,0,0,4,��,7.3,45
2014/2/16,19:00:00,15,�k�k��,4.5,-1.3,79.8,0,0,16,�k,10.2,22
2014/2/16,20:00:00,15,�k�k��,5.8,-1.1,72.3,0,0,16,�k,13.4,22
2014/2/16,21:00:00,15,�k�k��,5.7,-1.5,67.5,0,0,15,�k�k��,12.9,0
2014/2/16,22:00:00,14,�k��,6.1,-1.3,63.9,0,0,5,���쓌,11.8,59
2014/2/16,23:00:00,14,�k��,6.4,-1.6,61.8,0,0,11,���쐼,14,35
2014/2/16,0:00:00,14,�k��,7.9,-1.8,61.8,0,0,12,��,15.1,39
2014/2/17,1:00:00,13,���k��,6.9,-2.1,62.1,0,0,4,��,15.8,44
2014/2/17,2:00:00,13,���k��,8.4,-2.1,62.1,0,0,16,�k,16.6,23
2014/2/17,3:00:00,14,�k��,7.2,-2.1,58.3,0,0,12,��,15.8,5
2014/2/17,4:00:00,2,�k��,4.9,-2.3,58.7,0,0,12,��,13.4,5
2014/2/17,5:00:00,1,�k�k��,6,-2,57.7,0,0,13,���k��,13.9,6
2014/2/17,6:00:00,13,���k��,7.6,-2.4,59.6,0,0,6,�쓌,13.8,55
2014/2/17,7:00:00,12,��,8.2,-2.2,58.3,0,0.02,6,�쓌,17.8,3
2014/2/17,8:00:00,11,���쐼,8.7,-2.2,55.9,0,0.12,13,���k��,18.8,9
2014/2/17,9:00:00,8,��,8.4,-1.8,51.7,0,0.34,8,��,18.1,33
2014/2/17,10:00:00,9,��쐼,8.3,-1.3,53.1,0,0.51,5,���쓌,17.7,46
2014/2/17,11:00:00,11,���쐼,7.4,-0.6,50.5,0,0.63,11,���쐼,17,12
2014/2/17,12:00:00,11,���쐼,9.4,-0.9,52.5,0,0.53,3,���k��,17.4,11
2014/2/17,13:00:00,11,���쐼,10,-0.6,59.2,0,0.64,3,���k��,19.7,50
2014/2/17,14:00:00,10,�쐼,9.4,-0.4,53.1,0,0.6,11,���쐼,19.6,26
2014/2/17,15:00:00,6,�쓌,10.2,-0.7,54.6,0,0.44,2,�k��,20,52
2014/2/17,16:00:00,4,��,8.7,-1.2,54.2,0,0.25,4,��,16.7,15
2014/2/17,17:00:00,4,��,6.6,-1.9,57.1,0,0.07,13,���k��,16.4,1
2014/2/17,18:00:00,5,���쓌,5.4,-2.4,57.5,0,0.01,9,��쐼,14,26